TimeMST,TemperatureF,Dew PointF,Humidity,Sea Level PressureIn,VisibilityMPH,Wind Direction,Wind SpeedMPH,Gust SpeedMPH,PrecipitationIn,Events,Conditions,WindDirDegrees,DateUTC
1:35 PM,75.2,10.4,8,30.10,-9999.0,NE,10.4,-,N/A,,Unknown,50,2014-01-17 20:35:00
1:55 PM,75.2,10.4,8,30.09,10.0,Variable,5.8,-,N/A,,Unknown,0,2014-01-17 20:55:00
2:15 PM,75.2,10.4,8,30.08,10.0,NE,8.1,-,N/A,,Clear,40,2014-01-17 21:15:00
2:35 PM,75.2,10.4,8,30.08,10.0,NE,8.1,-,N/A,,Clear,50,2014-01-17 21:35:00
2:55 PM,75.2,10.4,8,30.08,10.0,ENE,8.1,-,N/A,,Clear,70,2014-01-17 21:55:00
3:15 PM,75.2,12.2,9,30.07,10.0,ENE,6.9,-,N/A,,Clear,60,2014-01-17 22:15:00
3:35 PM,77.0,10.4,8,30.07,10.0,NE,9.2,-,N/A,,Clear,50,2014-01-17 22:35:00
3:55 PM,77.0,12.2,9,30.07,10.0,NNE,9.2,-,N/A,,Clear,30,2014-01-17 22:55:00
4:15 PM,77.0,10.4,8,30.07,10.0,NE,9.2,-,N/A,,Clear,50,2014-01-17 23:15:00
4:35 PM,75.2,10.4,8,30.07,10.0,North,9.2,-,N/A,,Clear,10,2014-01-17 23:35:00
4:55 PM,73.4,21.2,14,30.07,10.0,North,5.8,-,N/A,,Clear,350,2014-01-17 23:55:00
5:15 PM,71.6,19.4,14,30.06,10.0,North,5.8,-,N/A,,Clear,360,2014-01-18 00:15:00
5:35 PM,68.0,21.2,17,30.06,10.0,North,5.8,-,N/A,,Clear,360,2014-01-18 00:35:00
5:55 PM,64.4,23.0,21,30.07,10.0,NNW,4.6,-,N/A,,Clear,330,2014-01-18 00:55:00
6:10 PM,64.4,23.0,21,30.07,10.0,North,6.9,-,N/A,,Clear,360,2014-01-18 01:10:00
7:35 PM,55.4,23.0,29,30.07,10.0,ESE,5.8,-,N/A,,Clear,120,2014-01-18 02:35:00
7:55 PM,55.4,23.0,29,30.07,10.0,ESE,6.9,-,N/A,,Clear,110,2014-01-18 02:55:00
8:15 PM,55.4,21.2,26,30.08,10.0,ESE,6.9,-,N/A,,Clear,110,2014-01-18 03:15:00
8:35 PM,51.8,21.2,30,30.08,10.0,ESE,8.1,-,N/A,,Clear,110,2014-01-18 03:35:00
8:55 PM,50.0,21.2,32,30.09,10.0,SE,4.6,-,N/A,,Clear,130,2014-01-18 03:55:00
9:15 PM,51.8,17.6,26,30.09,10.0,ESE,6.9,-,N/A,,Clear,110,2014-01-18 04:15:00
9:35 PM,51.8,15.8,24,30.09,10.0,ESE,6.9,-,N/A,,Clear,110,2014-01-18 04:35:00
9:55 PM,48.2,15.8,27,30.09,10.0,ESE,8.1,-,N/A,,Clear,120,2014-01-18 04:55:00
10:15 PM,50.0,14.0,24,30.09,10.0,ESE,8.1,-,N/A,,Clear,110,2014-01-18 05:15:00
10:35 PM,51.8,14.0,22,30.10,10.0,ESE,8.1,-,N/A,,Clear,110,2014-01-18 05:35:00
10:55 PM,51.8,14.0,22,30.10,10.0,ESE,8.1,-,N/A,,Clear,110,2014-01-18 05:55:00
11:15 PM,48.2,14.0,25,30.10,10.0,SE,8.1,-,N/A,,Clear,130,2014-01-18 06:15:00
11:35 PM,50.0,14.0,24,30.10,10.0,ESE,6.9,-,N/A,,Clear,120,2014-01-18 06:35:00
11:55 PM,51.8,14.0,22,30.10,10.0,ESE,6.9,-,N/A,,Clear,110,2014-01-18 06:55:00